Tulsa, OK

8:20 PM CDT on May 25, 2017 (GMT -0500)
Tulsa International

Weather History for KTUL - January, 2014

Change the Weather History Date:

Thursday, January 16, 2014

  Actual Average Record
Temperature  
Mean Temperature 46 °F 38 °F  
Max Temperature 57 °F 48 °F 78 °F (1938)
Min Temperature 35 °F 27 °F 1 °F (1930)
Degree Days  
Heating Degree Days 19 27  
Month to date heating degree days 468 447  
Since 1 July heating degree days 2082 1875  
Moisture  
Dew Point 19 °F    
Average Humidity 39    
Maximum Humidity 59    
Minimum Humidity 19    
Precipitation  
Precipitation 0.00 in 0.06 in 1.90 in (1932)
Month to date precipitation 0.13 0.83  
Year to date precipitation 0.13 0.83  
Sea Level Pressure  
Sea Level Pressure 30.00 in    
Wind  
Wind Speed 15 mph (WNW)    
Max Wind Speed 33 mph    
Max Gust Speed 43 mph    
Visibility 10 miles    
Events      
T = Trace of Precipitation, MM = Missing Value Source: NWS Daily Summary

Daily Weather History Graph

Daily Weather History Graph

Search for Another Location

Airport or City:

Trip Planner

Search our weather history database for the weather conditions in past years. The results will help you decide how hot, cold, wet, or windy it might be!

Date:

Astronomy

Jan. 16, 2014 Rise Set
Actual Time 7:33 AM CST 5:33 PM CST
Civil Twilight 7:05 AM CST 6:01 PM CST
Nautical Twilight 6:34 AM CST 6:32 PM CST
Astronomical Twilight 6:03 AM CST 7:03 PM CST
Moon 6:23 PM CST (1/16) 7:30 AM CST (1/16)
Length of Visible Light 10h 55m
Length of Day
9h 59m
Full, 100% of the Moon is Illuminated
Jan 16
Full
Jan 23
Last Quarter
Jan 30
New
Feb 6
First Quarter
Feb 14
Full

Hourly Weather History & Observations

Time (CST) Temp. Windchill Dew Point Humidity Pressure Visibility Wind Dir Wind Speed Gust Speed Precip Events Conditions
12:53 AM 43.0 °F 38.2 °F 23.0 °F 45% 29.91 in 10.0 mi South 8.1 mph - N/A   Clear
1:53 AM 44.1 °F 38.1 °F 23.0 °F 43% 29.89 in 10.0 mi South 11.5 mph - N/A   Overcast
2:53 AM 43.0 °F 37.2 °F 24.1 °F 47% 29.89 in 10.0 mi South 10.4 mph - N/A   Overcast
3:53 AM 44.1 °F 40.1 °F 23.0 °F 43% 29.90 in 10.0 mi SW 6.9 mph - N/A   Overcast
4:53 AM 44.1 °F 38.6 °F 23.0 °F 43% 29.91 in 10.0 mi WSW 10.4 mph - N/A   Scattered Clouds
5:53 AM 43.0 °F 38.2 °F 23.0 °F 45% 29.91 in 10.0 mi WSW 8.1 mph - N/A   Partly Cloudy
6:53 AM 36.0 °F 31.1 °F 23.0 °F 59% 29.95 in 10.0 mi WNW 5.8 mph - N/A   Partly Cloudy
7:53 AM 37.9 °F 30.9 °F 24.1 °F 57% 29.97 in 10.0 mi West 10.4 mph - N/A   Scattered Clouds
8:53 AM 44.1 °F 39.5 °F 26.1 °F 49% 30.02 in 10.0 mi WNW 8.1 mph - N/A   Scattered Clouds
9:53 AM 50.0 °F - 28.0 °F 43% 30.03 in 10.0 mi NW 15.0 mph 19.6 mph N/A   Partly Cloudy
10:53 AM 55.0 °F - 25.0 °F 31% 30.04 in 10.0 mi NW 23.0 mph - N/A   Partly Cloudy
11:53 AM 55.9 °F - 21.9 °F 27% 30.02 in 10.0 mi NW 20.7 mph 32.2 mph N/A   Partly Cloudy
12:53 PM 55.9 °F - 16.0 °F 21% 30.00 in 10.0 mi NNW 23.0 mph 40.3 mph N/A   Partly Cloudy
1:53 PM 55.9 °F - 15.1 °F 20% 29.99 in 10.0 mi NW 20.7 mph 39.1 mph N/A   Scattered Clouds
2:53 PM 55.9 °F - 14.0 °F 19% 29.98 in 10.0 mi WNW 23.0 mph 33.4 mph N/A   Scattered Clouds
3:53 PM 55.0 °F - 17.1 °F 23% 29.97 in 10.0 mi WNW 23.0 mph 29.9 mph N/A   Mostly Cloudy
4:53 PM 53.1 °F - 12.9 °F 20% 29.99 in 10.0 mi NW 19.6 mph 29.9 mph N/A   Mostly Cloudy
5:53 PM 48.9 °F - 15.1 °F 26% 30.00 in 10.0 mi WNW 12.7 mph - N/A   Mostly Cloudy
6:53 PM 48.0 °F - 12.9 °F 24% 30.02 in 10.0 mi WNW 12.7 mph - N/A   Mostly Cloudy
7:53 PM 46.0 °F 40.6 °F 12.0 °F 25% 30.06 in 10.0 mi NW 11.5 mph - N/A   Mostly Cloudy
8:53 PM 44.1 °F 37.1 °F 12.0 °F 27% 30.09 in 10.0 mi NNW 15.0 mph - N/A   Mostly Cloudy
9:53 PM 44.1 °F 35.7 °F 12.9 °F 28% 30.12 in 10.0 mi NNW 20.7 mph 29.9 mph N/A   Mostly Cloudy
10:53 PM 42.1 °F 33.3 °F 12.0 °F 29% 30.14 in 10.0 mi NW 19.6 mph 25.3 mph N/A   Partly Cloudy
11:53 PM 39.0 °F 30.6 °F 12.0 °F 33% 30.15 in 10.0 mi NNW 15.0 mph - N/A   Clear